Probability
0 0 0 0 0 0 0 0 0 0 0 0 0 0 0 0 0 0 0 0 0 0 0 0 0 0 0 0 0 1 2 2 1 0 0 0 1 1
0 0 0 0 0 0 0 0 0 0 0 0 0 0 0 0 0 0 0 0 0 0 0 0 0 0 0 0 0 0 1 1 0 0 0 0 0 1
0 0 0 0 0 0 0 0 0 0 0 0 0 0 0 0 0 0 0 0 0 0 0 0 0 0 0 0 0 0 0 0 0 0 0 0 0 0
0 0 0 0 0 0 0 0 0 0 0 0 0 0 0 0 0 0 0 0 0 0 0 0 0 0 0 0 0 0 0 0 0 0 0 0 0 0
0 0 0 0 0 0 0 0 0 0 0 0 0 0 0 0 0 0 0 0 1 1 0 0 0 0 0 0 0 0 0 0 0 0 0 0 0 0
0 0 0 0 0 0 0 0 0 0 0 0 0 0 0 0 0 0 0 0 1 2 1 0 0 0 0 0 0 0 0 0 0 0 0 0 0 0
0 0 0 0 0 0 0 0 0 0 0 0 0 0 0 0 0 0 0 0 1 1 1 0 0 0 0 0 0 0 0 0 0 0 0 0 0 0
0 0 0 0 0 0 0 0 0 0 0 0 0 0 0 0 0 0 0 0 0 1 1 1 1 0 0 0 0 0 0 0 0 0 0 0 0 0
0 0 0 0 0 0 0 0 0 0 0 0 0 0 0 0 0 0 0 0 0 0 2 2 1 0 0 0 0 0 0 0 0 0 0 0 0 0
0 0 0 0 0 0 0 0 0 0 0 0 0 0 0 0 0 0 0 0 0 0 1 1 1 0 0 0 0 0 0 0 0 0 0 0 0 0
0 0 0 0 0 0 0 0 0 0 0 0 0 0 0 0 0 0 0 0 0 0 0 0 0 0 0 0 0 0 0 0 0 0 0 0 0 0
0 0 0 0 0 0 0 0 0 0 0 0 0 0 0 0 0 0 0 0 0 0 0 0 0 0 0 0 0 0 0 0 0 0 0 0 0 0
0 0 0 0 0 0 0 0 0 0 0 0 0 0 0 0 0 0 0 0 0 0 0 0 0 0 0 0 0 0 0 0 0 0 0 0 0 0
0 0 0 0 0 0 0 0 0 0 0 0 0 0 0 0 0 0 0 0 0 0 0 0 0 0 0 0 0 0 0 0 0 0 0 0 0 0
0 0 0 0 0 0 0 0 0 0 0 0 0 0 0 0 0 0 0 0 0 0 0 0 0 0 0 0 0 0 0 0 0 0 0 0 0 0
0 0 0 0 0 0 0 0 0 0 0 0 0 0 0 0 0 0 0 0 0 0 0 0 0 0 0 0 0 0 0 0 0 0 0 0 0 0
0 0 0 0 0 0 0 0 0 0 1 1 0 0 1 0 0 0 0 0 0 0 0 0 0 0 0 0 0 0 0 0 0 0 0 0 0 0
0 0 0 0 0 0 0 0 0 0 1 1 0 0 0 0 0 0 0 0 0 0 0 0 0 0 0 0 0 0 0 0 0 0 0 0 0 0
0 0 0 0 0 0 0 0 0 0 1 1 0 0 0 0 0 0 0 0 0 0 0 0 0 0 0 0 0 0 0 0 0 0 0 0 0 0
0 0 1 1 1 0 0 0 0 0 0 0 0 0 0 0 0 0 0 0 0 0 0 0 0 0 0 0 0 0 0 0 0 0 0 0 0 0
0 0 1 2 2 1 0 0 0 0 0 1 1 0 0 0 0 0 0 0 0 0 0 0 0 0 0 0 0 0 0 0 0 0 0 0 0 0
0 0 0 1 2 2 1 0 0 0 1 3 2 1 1 0 0 0 0 0 0 0 0 0 0 0 0 0 0 0 0 0 0 0 0 0 0 0
0 0 0 0 1 2 2 1 0 0 1 3 3 2 2 1 0 0 0 0 0 0 0 0 0 0 0 0 0 0 0 0 0 0 0 0 0 0
Wind_Speed
1 2 1 1 1 1 0 1 1 0 1 1 0 1 2 2 3 3 3 5 6 6 5 5 5 4 4 4 4 4 4 5 5 6 7 8 9 9
2 1 2 1 1 1 1 1 1 2 1 1 1 1 2 3 4 2 3 6 6 7 6 6 5 5 5 4 4 4 4 4 5 6 6 6 6 6
2 2 2 2 1 1 1 1 1 1 2 1 1 1 2 2 2 2 3 3 3 7 7 7 6 6 5 5 5 5 5 5 4 4 5 6 6 5
3 2 2 2 2 1 1 2 2 1 2 2 1 1 2 2 3 2 2 3 3 6 8 8 8 7 6 5 5 5 5 5 5 4 4 5 5 5
4 3 3 2 2 2 2 2 2 1 1 2 2 1 1 1 2 1 1 1 2 5 7 7 7 7 7 6 5 5 5 5 5 4 4 4 4 4
4 4 4 3 3 3 2 2 2 2 1 1 2 1 1 2 2 2 1 1 1 2 3 5 6 7 7 6 6 5 5 5 4 4 4 4 3 3
5 5 5 6 5 3 2 2 2 2 2 2 2 2 2 2 2 2 2 1 1 2 2 2 3 3 4 5 6 6 5 5 4 4 4 3 3 3
6 5 5 6 8 9 7 6 4 3 2 2 2 3 3 3 2 3 2 2 2 2 2 2 3 3 3 3 6 7 6 6 5 4 4 3 3 3
7 5 5 5 8 7 8 9 8 8 6 3 3 4 4 4 4 3 3 3 3 3 2 1 1 2 2 4 8 8 8 7 6 5 4 3 3 3
8 8 7 6 6 7 7 7 7 7 7 5 4 4 3 3 5 5 4 2 1 1 3 2 1 2 3 3 7 8 8 7 7 5 4 3 3 3
8 8 7 6 8 10 8 7 7 6 7 7 7 6 5 4 4 3 3 2 2 2 2 2 2 2 2 2 4 8 8 7 6 5 4 3 3 2
7 7 9 8 8 7 7 7 8 7 6 6 5 5 5 5 6 5 5 4 3 2 3 3 2 2 1 2 3 3 4 5 6 5 5 4 3 1
6 6 6 9 9 9 8 7 9 7 6 7 6 5 4 4 4 4 4 4 4 3 3 3 2 2 2 2 2 3 3 3 3 3 4 4 4 3
6 5 6 9 10 11 9 9 11 9 5 5 5 6 6 5 5 5 5 4 3 4 4 4 3 3 3 2 2 2 3 3 3 3 2 2 2 2
7 10 11 11 10 8 12 12 9 6 6 6 6 6 6 6 6 5 5 4 3 3 3 3 3 3 3 3 3 2 2 2 2 3 2 2 1 1
8 10 12 12 9 10 9 8 7 7 7 7 6 5 5 5 5 5 4 4 3 2 2 4 4 4 2 2 3 3 3 3 2 2 2 1 1 1
9 7 6 6 6 6 6 6 6 7 8 7 6 6 6 6 5 5 5 4 5 5 4 2 3 4 4 3 3 3 3 2 2 2 3 1 0 0
10 7 7 7 8 8 7 7 7 8 8 7 7 7 7 7 6 5 5 5 5 5 5 4 4 3 2 1 1 3 3 3 2 2 3 2 0 1
8 8 8 8 8 7 7 7 8 8 7 8 8 8 7 7 7 7 7 6 6 5 6 6 5 5 5 4 2 0 3 3 3 2 2 2 2 1
6 8 8 7 7 7 7 7 7 7 7 8 8 9 8 8 8 8 8 8 7 6 5 5 6 6 7 6 4 1 1 3 3 3 2 1 1 2
7 7 8 7 7 7 7 6 6 7 7 8 8 9 9 8 8 9 8 10 8 6 7 7 6 8 5 5 4 2 1 1 4 4 3 3 1 1
8 8 7 7 7 7 7 6 6 7 7 7 8 8 9 9 9 10 10 9 8 7 6 5 6 6 4 5 5 4 3 2 2 3 3 4 4 3
8 8 7 7 7 7 7 7 8 7 7 7 7 8 8 8 9 9 9 9 8 8 7 7 5 4 4 5 5 4 5 4 3 2 0 2 4 5
Wind_Direction
329 329 316 289 291 305 263 171 154 242 263 218 202 176 148 140 158 172 161 167 167 167 167 166 169 172 166 172 183 184 186 191 194 200 205 209 211 213
232 252 297 308 314 299 270 259 196 180 244 237 208 197 154 150 159 161 157 160 175 178 179 177 179 181 180 185 185 187 187 189 197 202 201 200 204 210
281 231 239 239 275 294 287 271 249 192 216 259 229 186 153 149 156 179 165 172 178 182 183 186 185 188 190 194 196 194 194 192 194 199 199 197 198 204
271 281 268 242 221 260 282 280 261 222 189 225 240 214 175 177 175 188 189 179 171 181 183 187 188 191 193 194 196 195 191 189 189 192 194 193 194 199
236 240 254 253 234 239 240 256 267 252 187 193 226 202 195 183 154 193 211 183 166 172 180 188 188 186 186 186 187 185 183 183 184 185 187 186 185 192
231 225 225 221 222 238 236 239 250 247 222 205 211 200 200 191 157 184 203 197 188 172 168 169 177 178 179 176 175 173 176 177 179 181 183 185 187 195
251 231 219 210 204 209 222 234 248 237 224 209 211 207 201 183 195 193 182 191 215 182 151 168 160 165 178 174 171 169 170 174 177 178 181 187 195 204
274 251 226 215 211 212 217 216 212 218 224 213 211 213 212 196 184 176 174 172 222 205 157 202 168 163 170 165 169 170 172 170 170 170 173 183 194 204
279 272 261 234 209 209 214 221 226 228 223 220 229 219 210 192 173 182 193 191 203 191 138 216 190 166 157 151 157 160 162 162 160 160 162 172 188 204
269 265 261 252 226 210 206 211 217 220 223 220 231 229 213 184 171 177 184 178 183 181 147 181 197 169 147 146 160 159 160 158 157 159 165 175 194 218
269 266 263 256 240 224 212 213 216 219 219 207 203 206 190 180 167 145 158 159 203 223 183 168 179 150 150 161 169 167 163 165 166 169 174 181 197 222
278 270 262 258 254 238 226 216 219 214 199 197 204 206 199 195 193 182 177 179 185 206 197 164 169 148 160 161 153 165 172 183 181 184 188 195 192 192
280 277 266 255 248 241 242 231 223 216 198 193 195 200 199 195 196 199 189 178 185 201 185 156 161 159 158 155 160 179 175 171 178 193 200 203 195 178
272 276 282 275 256 247 243 246 238 222 209 196 195 199 198 198 196 193 191 187 182 183 170 152 156 166 156 153 171 168 175 174 164 165 169 174 180 174
280 285 289 285 270 254 242 239 236 223 211 207 206 205 198 190 182 178 179 174 174 170 156 148 146 153 151 162 164 159 159 173 159 145 140 149 169 157
284 287 286 275 262 251 246 237 228 220 212 213 208 199 185 181 180 172 172 168 166 183 162 145 143 145 152 158 154 165 163 163 147 131 123 104 74 94
293 286 278 272 258 248 237 227 224 224 220 214 205 196 189 185 183 173 166 167 175 179 176 155 130 121 129 144 155 163 151 140 147 139 118 105 48 94
290 278 268 258 253 243 236 232 223 223 220 211 206 199 192 188 184 176 171 175 182 180 175 166 145 121 94 37 103 161 155 152 146 136 129 132 181 4
277 268 265 261 258 248 236 234 231 222 219 212 207 201 193 187 181 180 180 182 184 180 175 168 163 160 171 195 233 107 154 153 139 134 140 148 170 178
265 268 267 265 264 259 247 238 237 226 220 215 208 202 194 187 183 182 184 185 183 176 173 172 175 176 180 178 167 178 157 149 148 154 155 116 100 106
279 272 267 266 266 264 257 245 240 235 226 219 208 204 196 187 185 184 183 184 180 178 180 184 178 156 133 115 119 138 134 112 134 152 151 137 154 194
283 279 275 271 270 269 266 256 247 243 233 225 213 204 200 190 184 183 182 180 182 181 174 161 152 146 143 156 161 155 147 125 80 96 123 153 162 183
286 281 274 273 272 270 268 262 257 252 240 233 218 204 199 193 185 181 180 177 173 167 156 156 157 154 157 157 155 151 153 157 151 126 326 209 177 178